User: anonymous   Login
Location: Unspecified
(0.0000°N, 0.0000°E)
Time: 04:50:59
(UTC+02:00)
Language:

Helios 1A Rocket - Orbit

View from above orbital plane
View from above orbital plane
View from above satellite
View from above satellite

Ground track
Ground track

The orbit data is extracted from the following two-line orbital elements,

1 23608U 95033D   17202.58266114 +.00000281 +00000-0 +30557-4 0  9999
2 23608 098.2230 136.5525 0017671 136.4620 223.7998 14.96316971192599
Epoch (UTC): 21 July 2017 13:59:01
Eccentricity: 0.0017671
inclination: 98.2230°
perigee height: 566 km
apogee height: 590 km
right ascension of ascending node: 136.5525°
argument of perigee: 136.4620°
revolutions per day: 14.96316971
mean anomaly at epoch: 223.7998°
orbit number at epoch: 19259

The dashed part of the orbit path shows where the satellite is in the earth's shadow,  

DLR